User: anonymous   Login
Location: Unspecified
(0.0000°N, 0.0000°E)
Time: 18:13:16
(UTC+00:00)
Language:

APRIZESAT 2 (LATINSAT D) - Orbit

View from above orbital plane
View from above orbital plane
View from above satellite
View from above satellite

Ground track
Ground track

The orbit data is extracted from the following two-line orbital elements,

1 28366U 04025A   19084.80699596 -.00000000 +00000-0 +14348-4 0  9995
2 28366 098.3088 347.5496 0106451 274.8477 084.0562 14.36669160772437
Epoch (UTC): 25 March 2019 19:22:04
Eccentricity: 0.0106451
inclination: 98.3088°
perigee height: 693 km
apogee height: 845 km
right ascension of ascending node: 347.5496°
argument of perigee: 274.8477°
revolutions per day: 14.36669160
mean anomaly at epoch: 84.0562°
orbit number at epoch: 77243

The dashed part of the orbit path shows where the satellite is in the earth's shadow,  

DLR